Home > Weather > Eferding > Past weeks

Flag for Austria Past Weather in Eferding, Upper Austria, Austria — Yesterday and Last 2 Weeks

Now
85 °F

Scattered clouds.


Feels Like: 86 °F
Forecast: 65 / 82 °F
Wind: N/A

Location: Linz / Hoersching-Flughafen

Current Time: Jul 23, 2016 at 5:12:25 PM

Latest Report: Jul 23, 2016 at 4:00 PM


Visibility: 19 mi

Pressure: 29.94 "Hg

Humidity: 48%

Dew Point: 63 °F

Location of EferdingLocation

Past Weather in Eferding — Graph

°F

Eferding Temperature Yesterday

Maximum temperature yesterday: 84 °F (at 5:00 PM)
Minimum temperature yesterday: 66 °F (at 6:00 AM)
Average temperature yesterday: 73 °F

High & Low Weather Summary for the Past Weeks

 TemperatureHumidityPressure
High91 °F (Jul 11, 4:00 PM)97% (Jul 12, 4:00 AM)30.30 "Hg (Jul 12, 4:00 AM)
Low51 °F (Jul 15, 4:00 AM)35% (Jul 8, 4:00 PM)29.79 "Hg (Jul 11, 7:00 PM)
Average68 °F73%30.04 "Hg
* Reported Jul 8 4:00 PM — Jul 23 4:00 PM, Eferding, Weather by CustomWeather, © 2016

Note: Actual official high and low records may vary slightly from our data, if they occured in-between our weather recording intervals... More about our weather records

Advertising

Eferding Weather History for the Previous 24 Hours

Scroll right to see more
 ConditionsComfort  
Time TempWeatherWind HumidityBarometerVisibility
4:00 PM
Sat, Jul 23
85 °FScattered clouds.N/A48%29.94 "Hg19 mi
3:00 PM84 °FPassing clouds.N/A52%29.96 "Hg14 mi
2:00 PM82 °FPassing clouds.N/A54%29.97 "Hg17 mi
1:00 PMN/APassing clouds.16 mphN/AN/A2 mi
12:00 PM77 °FPassing clouds.N/A63%29.99 "Hg19 mi
11:00 AM76 °FPassing clouds.N/A70%30.00 "Hg17 mi
10:00 AM73 °FScattered clouds.N/A75%30.01 "Hg14 mi
9:00 AM71 °FScattered clouds.N/A78%30.01 "Hg12 mi
8:00 AM67 °FScattered clouds.N/A88%30.02 "Hg14 mi
7:00 AM65 °FScattered clouds.N/A93%30.02 "Hg11 mi
6:00 AM65 °FOvercast.N/A93%30.01 "Hg7 mi
5:00 AM65 °FOvercast.N/A93%30.00 "Hg12 mi
4:00 AM65 °FOvercast.N/A95%29.99 "Hg8 mi
3:00 AM66 °FOvercast.N/A93%29.99 "Hg11 mi
2:00 AM66 °FOvercast.N/A94%30.00 "Hg8 mi
1:00 AM66 °FOvercast.N/A94%29.99 "Hg12 mi
12:00 AM67 °FPassing clouds.N/A92%29.99 "Hg13 mi
11:00 PM
Fri, Jul 22
68 °FLight rain. Low clouds.N/A88%29.98 "Hg25 mi
10:00 PM70 °FLight rain. Low clouds.N/A76%29.96 "Hg18 mi
9:00 PM76 °FLow clouds.N/A61%29.95 "Hg11 mi
8:00 PMN/APassing clouds.12 mphN/AN/A2 mi
7:00 PM80 °FPartly sunny.N/A52%29.90 "Hg25 mi
6:00 PM83 °FPassing clouds.5 mph42%29.89 "Hg22 mi
5:00 PM84 °FPassing clouds.5 mph41%29.90 "Hg16 mi
Weather by CustomWeather, © 2016

See weather overviewHow to use our weather pages